Очёр

Россия / Пермский край     57°53′06″N   54°42′57″E
темп.,
°C
ветер,
м/с
пор.,
м/с
влажн.,
%
обл.,
%
осадки,
мм/ч
давл.,
гПа
погр.,
м
10 апреля, сб
сб1023:00+1ю2499100 0.3 102893
02:00+1ю1199100 0.9 102925
05:00+1юв01100100 1.3 103048
08:00+1вюв14100100 0.6 1031217
11:00+2всв2397100 0.7 1032354
14:00+4в349199 0.0 1032510
17:00+3в2598100 0.3 1032234
20:00+2в3799100 2.3 1030221
11 апреля, вс
вс1123:00+2вюв26100100 2.6 1029146
02:00+2ююв2999100 0.6 1027243
05:00+2ююв26100100 5.5 1027144
08:00+3ю31099100 6.2 1027332
11:00+4ююз31098100 8.1 1028335
14:00+4зюз2699100 0.2 1029235
17:00+3зюз14100100 2.1 103191
20:00+3з11100100 0.0 103210
12 апреля, пн
пн1223:00+1зсз2297100 0.0 103430
02:00−1сз1199100 0.0 103525
05:00−1зсз1197100 0.0 103723
08:00+2сз1189100 0.0 103831
11:00+7с1277100 0.0 1038286
14:00+10ссв1166100 0.0 1038818
17:00+10с1164100 0.0 1038940
20:00+6всв1183100 0.0 103810
13 апреля, вт
вт1323:00+4в118859 0.0 103810
02:00+4юв1189100 0.0 103810
05:00+3юв1191100 0.0 103810
08:00+4вюв1189100 0.0 103738
11:00+9ююв237033 0.0 1036365
14:00+10ю236998 0.0 1034138
17:00+12ююз3566100 0.0 1032606
20:00+10ю238623 0.0 103150
14 апреля, ср
ср1423:00+8ююз369170 0.0 103198
02:00+7юз2792100 0.0 1029130
05:00+6юз249079 0.0 102965
08:00+6юз278276 0.0 1029165
11:00+12зюз465886 0.0 1028499
14:00+15зюз46495 0.0 10261184
17:00+15з45465 0.0 10261390
20:00+12зюз226633 0.0 102512